[[{"header":{"parameterUnit":"m.s-1","parameterCategory":1,"la1":30.2991,"la2":30.254,"lo1":-89.0895,"lo2":-89.0444,"dy":0.0017,"dx":0.0017,"nx":28,"ny":28,"refTime":"2024-10-16T09:00:00:Z","depth":0,"parameterNumber":2,"parameterNumberName":"U-component_of_WINDS"},"data":[0,0,0,0,0,0,0,0,0,0,0,0,0,0,0,0,0,0,0,0,0,0,0,0,0,0,0,0,0,0,0,0,0,0,0,0,0,0,0,0,0,0,0,0,0,0,0,0,0,0,0,0,0,0,0,0,0,0,-2.625,-2.6251,0,-2.6297,-2.6297,-2.6298,-2.6218,-2.6216,-2.6213,-2.621,-2.6258,-2.6261,-2.6265,0,0,0,0,0,0,0,0,0,0,0,0,0,-2.6091,-2.6094,-2.625,-2.6251,-2.6252,-2.6297,-2.6297,-2.6298,-2.6219,-2.6216,-2.6212,-2.6209,-2.6257,-2.6261,-2.6266,0,0,0,0,0,0,0,0,0,0,0,0,0,-2.6151,-2.6095,-2.625,-2.6217,-2.6215,-2.6297,-2.6297,-2.6298,-2.622,-2.6215,-2.6211,-2.6208,-2.6255,-2.6261,-2.6266,-2.6382,0,0,-2.6283,-2.6286,0,0,0,0,0,0,0,0,-2.6148,-2.6157,-2.6222,-2.622,-2.6217,-2.6248,-2.6258,-2.6326,-2.6221,-2.6218,-2.621,-2.6206,-2.6258,-2.6263,-2.628,-2.6384,-2.6386,-2.6284,-2.6287,-2.629,-2.6291,0,0,0,0,0,0,0,-2.6144,-2.6155,-2.6269,-2.6223,-2.622,-2.62,-2.6204,-2.6271,-2.626,-2.6218,-2.6212,-2.6219,-2.6256,-2.6275,-2.6281,-2.6387,-2.6284,-2.6289,-2.6292,-2.6295,-2.6586,-2.659,0,0,0,0,0,0,-2.6144,-2.6152,-2.6267,-2.627,-2.6172,-2.6206,-2.621,-2.6242,-2.6259,-2.6258,-2.6222,-2.6215,-2.6268,-2.6274,-2.6282,-2.6418,-2.629,-2.6295,-2.6298,-2.6582,-2.6587,-2.6592,0,0,0,0,0,0,-2.6141,-2.6155,-2.6265,-2.6209,-2.6222,-2.6213,-2.6249,-2.6245,-2.6264,-2.6262,-2.626,-2.6244,-2.6265,-2.6274,-2.6357,-2.6419,-2.6298,-2.6303,-2.6577,-2.6584,-2.659,-2.6692,0,0,0,0,0,0,-2.6136,-2.6154,-2.6199,-2.6211,-2.6225,-2.6341,-2.6253,-2.6249,-2.6275,-2.6265,-2.6282,-2.6281,-2.6262,-2.6349,-2.6363,-2.6424,-2.6307,-2.6571,-2.658,-2.6587,-2.6683,-2.6701,-2.6717,0,0,0,0,0,-2.6131,-2.6226,-2.6201,-2.6216,-2.6281,-2.6344,-2.6352,-2.6329,-2.628,-2.6324,-2.6322,-2.6281,-2.641,-2.6359,-2.6373,-2.6437,-2.6567,-2.6577,-2.6587,-2.6675,-2.6698,-2.6716,0,0,0,0,0,0,-2.6222,-2.6227,-2.62,-2.6302,-2.6323,-2.6331,-2.6386,-2.6353,-2.6389,-2.6379,-2.6347,-2.6352,-2.6441,-2.6447,-2.639,-2.6549,-2.648,-2.6493,-2.6543,-2.6563,-2.658,-2.6577,-2.6312,0,0,0,0,0,-2.6253,-2.6305,-2.6307,-2.6396,-2.6408,-2.6396,-2.6422,-2.6402,-2.6423,-2.6432,-2.6436,-2.6458,-2.6503,-2.6533,-2.6575,-2.6683,-2.6685,-2.6734,-2.6751,-2.6765,-2.6777,-2.6833,-2.6855,-2.6624,-2.6624,-2.6624,0,0,-2.632,-2.6329,-2.6364,-2.6415,-2.6429,-2.6482,-2.6404,-2.6464,-2.6503,-2.6441,-2.6519,-2.6523,-2.6545,-2.6641,-2.6683,-2.6649,-2.684,-2.6777,-2.6788,-2.6793,-2.6845,-2.6867,-2.6887,-2.6631,-2.663,-2.6628,0,0,-2.6468,-2.648,-2.6556,-2.6571,-2.6594,-2.6584,-2.6602,-2.6615,-2.6615,-2.6693,-2.6647,-2.6693,-2.6772,-2.6789,-2.6808,-2.696,-2.6923,-2.6975,-2.7063,-2.7118,-2.7136,-2.7152,-2.7206,-2.7226,-2.6986,-2.6987,-2.6987,0,-2.6547,-2.6627,-2.6599,-2.6662,-2.6685,-2.6631,-2.6706,-2.6723,-2.6758,-2.6775,-2.6735,-2.6832,-2.6843,-2.6942,-2.6979,-2.6996,-2.7015,-2.6973,-2.7136,-2.7152,-2.7166,-2.7217,-2.7238,-2.6993,-2.6992,-2.6992,-2.6991,0,-2.6723,-2.6779,-2.6837,-2.6872,-2.6901,-2.6971,-2.6953,-2.6986,-2.6962,-2.6957,-2.7037,-2.7047,-2.709,-2.7111,-2.7089,-2.7207,-2.7184,-2.7141,-2.7071,-2.7195,-2.7242,-2.7262,-2.7002,-2.6999,-2.6998,-2.6996,0,0,-2.6931,-2.6948,-2.697,-2.6985,-2.7004,-2.7047,-2.7113,-2.7154,-2.7183,-2.7208,-2.7262,-2.7329,-2.7289,-2.731,-2.7289,-2.7338,-2.7457,-2.7288,-2.7288,-2.7319,-2.7586,-2.7619,-2.7642,-2.7432,-2.7436,-2.7439,-2.7584,0,-2.7078,-2.7192,-2.7169,-2.728,-2.7331,-2.7279,-2.7336,-2.7354,-2.735,-2.7391,-2.7387,-2.7435,-2.7378,-2.739,-2.7436,-2.7433,-2.7511,-2.7422,-2.7482,-2.7485,-2.7479,-2.7667,-2.7702,-2.7839,-2.7603,-2.7606,-2.7608,0,-2.7265,-2.7297,-2.7415,-2.7425,-2.7445,-2.7497,-2.7532,-2.7573,-2.7591,-2.7585,-2.7608,-2.7578,-2.7642,-2.7571,-2.7659,-2.7599,-2.7622,-2.7624,-2.7628,-2.7633,-2.7554,-2.7677,-2.7882,-2.7903,-2.7637,-2.7635,-2.7633,0,-2.7405,-2.7477,-2.7556,-2.757,-2.7585,-2.7622,-2.763,-2.7644,-2.767,-2.77,-2.7716,-2.7754,-2.7775,-2.7804,-2.7784,-2.7734,-2.7875,-2.7802,-2.7871,-2.7871,-2.7903,-2.7902,-2.8115,-2.7918,-2.7918,-2.7917,-2.7917,0,-2.7572,-2.7646,-2.7619,-2.7668,-2.7748,-2.7719,-2.7799,-2.78,-2.7814,-2.7861,-2.7818,-2.7863,-2.7833,-2.7876,-2.786,-2.7935,-2.7945,-2.7941,-2.7936,-2.7945,-2.7945,-2.796,-2.795,-2.7923,-2.7921,-2.792,-2.7919,0,-2.7742,-2.7727,-2.781,-2.7816,-2.7819,-2.7878,-2.7883,-2.7928,-2.792,-2.798,-2.7993,-2.7981,-2.8028,-2.801,-2.8061,-2.8051,-2.8146,-2.8129,-2.814,-2.8136,-2.8205,-2.8199,-2.8435,-2.8464,-2.8249,-2.8251,-2.8253,0,-2.785,-2.7905,-2.7917,-2.7945,-2.7956,-2.8003,-2.8028,-2.8001,-2.803,-2.8054,-2.8096,-2.814,-2.8173,-2.8252,-2.8247,-2.8285,-2.8268,-2.8348,-2.8274,-2.8281,-2.8269,-2.8266,-2.8271,-2.8364,-2.8366,-2.8368,-2.837,0,-2.8042,-2.8032,-2.8071,-2.8107,-2.8139,-2.8167,-2.819,-2.8216,-2.819,-2.8224,-2.8272,-2.8298,-2.8349,-2.8393,-2.8427,-2.8433,-2.8398,-2.8393,-2.8411,-2.8421,-2.8425,-2.8423,-2.8181,-2.8388,-2.8386,-2.8385,-2.8384,-2.8383,-2.8184,-2.823,-2.8246,-2.829,-2.8305,-2.8327,-2.8369,-2.8366,-2.8406,-2.8446,-2.8427,-2.8482,-2.8498,-2.8539,-2.8551,-2.8593,-2.8562,-2.8588,-2.8595,-2.8602,-2.8611,-2.8418,-2.8599,-2.8599,-2.8598,-2.8598,-2.8597,0,-2.8374,-2.8381,-2.8422,-2.8456,-2.8491,-2.8453,-2.8477,-2.8508,-2.8557,-2.8575,-2.8609,-2.8663,-2.8705,-2.8703,-2.8741,-2.8775,-2.876,-2.8786,-2.8784,-2.8785,-2.8637,-2.8617,-2.8798,-2.8798,-2.8798,-2.8798,-2.8798,-2.8798,-2.8477,-2.8553,-2.8544,-2.8626,-2.8632,-2.8686,-2.8703,-2.8723,-2.8736,-2.8799,-2.8834,-2.8832,-2.8841,-2.888,-2.8916,-2.8914,-2.893,-2.8963,-2.8955,-2.8816,-2.8796,-2.8777,-2.8759,-2.8967,-2.8967,-2.91,-2.9101,-2.9102]},{"header":{"parameterUnit":"m.s-1","parameterCategory":1,"la1":30.2991,"la2":30.254,"lo1":-89.0895,"lo2":-89.0444,"dy":0.0017,"dx":0.0017,"nx":28,"ny":28,"refTime":"2024-10-16T09:00:00:Z","depth":0,"parameterNumber":3,"parameterNumberName":"V-component_of_WINDS"},"data":[0,0,0,0,0,0,0,0,0,0,0,0,0,0,0,0,0,0,0,0,0,0,0,0,0,0,0,0,0,0,0,0,0,0,0,0,0,0,0,0,0,0,0,0,0,0,0,0,0,0,0,0,0,0,0,0,0,0,-7.1264,-7.1265,0,-7.1358,-7.136,-7.1361,-7.1253,-7.1249,-7.1245,-7.1241,-7.1331,-7.1337,-7.1343,0,0,0,0,0,0,0,0,0,0,0,0,0,-7.0984,-7.099,-7.1264,-7.1266,-7.1267,-7.1358,-7.136,-7.1361,-7.1254,-7.1249,-7.1244,-7.1239,-7.1329,-7.1337,-7.1344,0,0,0,0,0,0,0,0,0,0,0,0,0,-7.1095,-7.0992,-7.1264,-7.1224,-7.1222,-7.1358,-7.136,-7.1361,-7.1255,-7.1249,-7.1243,-7.1237,-7.1327,-7.1336,-7.1345,-7.1523,0,0,-7.1373,-7.1377,0,0,0,0,0,0,0,0,-7.1089,-7.1105,-7.1229,-7.1227,-7.1225,-7.1288,-7.1294,-7.1415,-7.1256,-7.1242,-7.1241,-7.1234,-7.1321,-7.1331,-7.1361,-7.1527,-7.1531,-7.1374,-7.138,-7.1384,-7.1386,0,0,0,0,0,0,0,-7.1081,-7.1101,-7.1301,-7.1231,-7.1228,-7.1199,-7.1209,-7.1316,-7.1314,-7.1243,-7.1235,-7.1248,-7.1319,-7.1353,-7.1363,-7.1532,-7.1374,-7.1382,-7.1388,-7.1391,-7.1846,-7.1852,0,0,0,0,0,0,-7.1079,-7.1095,-7.1298,-7.1304,-7.1141,-7.1209,-7.122,-7.1274,-7.1313,-7.1313,-7.1253,-7.1243,-7.134,-7.1352,-7.1365,-7.1575,-7.1383,-7.1392,-7.1397,-7.1839,-7.1847,-7.1854,0,0,0,0,0,0,-7.1074,-7.1098,-7.1294,-7.1198,-7.122,-7.1221,-7.1282,-7.1279,-7.1312,-7.1321,-7.1319,-7.1289,-7.1336,-7.1352,-7.1484,-7.1576,-7.1396,-7.1405,-7.1832,-7.1842,-7.1851,-7.1996,0,0,0,0,0,0,-7.1066,-7.1097,-7.1166,-7.12,-7.1226,-7.1415,-7.1288,-7.1285,-7.1329,-7.1317,-7.1354,-7.1354,-7.1332,-7.1471,-7.1494,-7.1586,-7.1412,-7.1823,-7.1836,-7.1848,-7.1983,-7.201,-7.2032,0,0,0,0,0,-7.1056,-7.1203,-7.1171,-7.1196,-7.1313,-7.142,-7.1435,-7.1409,-7.1337,-7.1406,-7.1411,-7.1353,-7.1563,-7.1486,-7.151,-7.1606,-7.1817,-7.1833,-7.1847,-7.1972,-7.2004,-7.2032,0,0,0,0,0,0,-7.1178,-7.1206,-7.1171,-7.1333,-7.1375,-7.1402,-7.1487,-7.1444,-7.1506,-7.1491,-7.1454,-7.1463,-7.1603,-7.1618,-7.1531,-7.1779,-7.1678,-7.1698,-7.1765,-7.1796,-7.182,-7.1813,-7.142,0,0,0,0,0,-7.1224,-7.1311,-7.133,-7.147,-7.1494,-7.1488,-7.1533,-7.1509,-7.1551,-7.1567,-7.1582,-7.1623,-7.1697,-7.1747,-7.1817,-7.1985,-7.199,-7.2063,-7.2087,-7.2108,-7.2125,-7.2213,-7.2245,-7.1903,-7.1903,-7.1902,0,0,-7.1319,-7.1345,-7.1402,-7.1496,-7.1525,-7.1614,-7.1503,-7.1601,-7.1666,-7.1581,-7.1707,-7.172,-7.1762,-7.1912,-7.1979,-7.1929,-7.2221,-7.2126,-7.2143,-7.2149,-7.2231,-7.2264,-7.2292,-7.1913,-7.1911,-7.1909,0,0,-7.1537,-7.1567,-7.1687,-7.1719,-7.1766,-7.1761,-7.179,-7.1824,-7.1829,-7.1955,-7.1893,-7.1968,-7.2098,-7.2131,-7.2164,-7.2394,-7.2342,-7.2418,-7.2546,-7.2632,-7.2659,-7.2683,-7.2763,-7.2792,-7.2435,-7.2436,-7.2436,0,-7.1648,-7.1781,-7.1753,-7.1856,-7.1898,-7.1828,-7.1947,-7.198,-7.2047,-7.2076,-7.2019,-7.2181,-7.2204,-7.236,-7.2416,-7.2447,-7.2476,-7.2413,-7.2658,-7.2681,-7.2703,-7.2779,-7.2809,-7.2444,-7.2443,-7.2443,-7.2442,0,-7.1915,-7.2008,-7.2099,-7.2167,-7.2219,-7.233,-7.2316,-7.2372,-7.2344,-7.2344,-7.2472,-7.2498,-7.2571,-7.2606,-7.2579,-7.2758,-7.2725,-7.2664,-7.2561,-7.2745,-7.2815,-7.2844,-7.2457,-7.2454,-7.2451,-7.2449,0,0,-7.2212,-7.2264,-7.2297,-7.2327,-7.2374,-7.2443,-7.255,-7.2623,-7.2671,-7.2719,-7.2806,-7.2918,-7.2861,-7.2899,-7.2875,-7.2951,-7.3129,-7.2879,-7.288,-7.2923,-7.3325,-7.337,-7.3405,-7.3095,-7.31,-7.3105,-7.3321,0,-7.243,-7.2617,-7.2594,-7.2772,-7.2856,-7.279,-7.2882,-7.292,-7.2922,-7.2992,-7.2993,-7.3073,-7.2993,-7.3016,-7.3088,-7.3092,-7.3208,-7.3076,-7.3173,-7.3177,-7.3163,-7.3442,-7.349,-7.3693,-7.3349,-7.3353,-7.3357,0,-7.2709,-7.2769,-7.2956,-7.2989,-7.3023,-7.3107,-7.3171,-7.324,-7.328,-7.3276,-7.3319,-7.3281,-7.3384,-7.3281,-7.3422,-7.3333,-7.3371,-7.3379,-7.3386,-7.3392,-7.3277,-7.3455,-7.3757,-7.3787,-7.34,-7.3397,-7.3394,0,-7.2905,-7.3032,-7.316,-7.3188,-7.323,-7.329,-7.3309,-7.3344,-7.3389,-7.3444,-7.3472,-7.3539,-7.3575,-7.3626,-7.3606,-7.3533,-7.3751,-7.3646,-7.3748,-7.3749,-7.3796,-7.3793,-7.4108,-7.3824,-7.3823,-7.3822,-7.3822,0,-7.3149,-7.3266,-7.3249,-7.3327,-7.3455,-7.3427,-7.3553,-7.3564,-7.3595,-7.3673,-7.3619,-7.3693,-7.3662,-7.3733,-7.3718,-7.3836,-7.3853,-7.3851,-7.3845,-7.3855,-7.3855,-7.3878,-7.3863,-7.3831,-7.3829,-7.3827,-7.3826,0,-7.3389,-7.3383,-7.3518,-7.3547,-7.3557,-7.3649,-7.3673,-7.3745,-7.3744,-7.3842,-7.3864,-7.3861,-7.3941,-7.3926,-7.4015,-7.4004,-7.4152,-7.4129,-7.4139,-7.4133,-7.4236,-7.4226,-7.4575,-7.4619,-7.4308,-7.4311,-7.4314,0,-7.3546,-7.3634,-7.3673,-7.3722,-7.3747,-7.3827,-7.3873,-7.3847,-7.3897,-7.3949,-7.4015,-7.4091,-7.415,-7.4281,-7.4285,-7.4352,-7.433,-7.4448,-7.4339,-7.4346,-7.4329,-7.4324,-7.4332,-7.4469,-7.4472,-7.4475,-7.4477,0,-7.3823,-7.3815,-7.3885,-7.3954,-7.4011,-7.4063,-7.4109,-7.4152,-7.413,-7.4189,-7.4271,-7.4318,-7.4408,-7.4484,-7.4546,-7.4563,-7.4517,-7.4512,-7.4539,-7.4549,-7.4551,-7.4549,-7.4196,-7.4503,-7.4501,-7.4499,-7.4498,-7.4497,-7.4024,-7.4099,-7.4138,-7.4217,-7.425,-7.4295,-7.4364,-7.4372,-7.4441,-7.4514,-7.4494,-7.4588,-7.4623,-7.4702,-7.4727,-7.4798,-7.4753,-7.4793,-7.4803,-7.4813,-7.4824,-7.4541,-7.4809,-7.4808,-7.4808,-7.4807,-7.4806,0,-7.4297,-7.4319,-7.4392,-7.446,-7.4522,-7.4475,-7.4524,-7.4577,-7.4661,-7.4699,-7.4759,-7.4853,-7.4926,-7.4936,-7.5004,-7.5059,-7.5039,-7.5077,-7.5072,-7.5077,-7.4861,-7.483,-7.5092,-7.5092,-7.5092,-7.5092,-7.5092,-7.5092,-7.4446,-7.457,-7.4567,-7.4706,-7.4726,-7.4819,-7.485,-7.489,-7.4921,-7.5029,-7.509,-7.5097,-7.5123,-7.5192,-7.5256,-7.5257,-7.5284,-7.533,-7.5323,-7.5121,-7.5092,-7.5065,-7.5036,-7.5337,-7.5337,-7.5532,-7.5534,-7.5536]}]]